| time (UTC) | temp F | wind direction | speed knots | gust knots | rain 1hr in | rain 24hr in | rain mn in | humidity % | barometer mb |
| 20260905211542 | 74 | 348 | 3.5 | 11.3 | 0.00 | 0.00 | 0.00 | 38 | 1014.3 |
| 20260905210037 | 73 | 35 | 1.7 | 7.8 | 0.00 | 0.00 | 0.00 | 39 | 1014.4 |
| 20260905204535 | 73 | 301 | 0.9 | 7.0 | 0.00 | 0.00 | 0.00 | 39 | 1014.3 |
| 20260905203035 | 73 | 330 | 4.3 | 9.6 | 0.00 | 0.00 | 0.00 | 39 | 1014.4 |
| 20260905201537 | 73 | 336 | 4.3 | 8.7 | 0.00 | 0.00 | 0.00 | 39 | 1014.6 |
| 20260905200033 | 72 | 328 | 5.2 | 9.6 | 0.00 | 0.00 | 0.00 | 41 | 1014.6 |
| 20260905194529 | 72 | 321 | 1.7 | 9.6 | 0.00 | 0.00 | 0.00 | 43 | 1014.7 |
| 20260905193028 | 71 | 25 | 5.2 | 8.7 | 0.00 | 0.00 | 0.00 | 43 | 1014.8 |
| 20260905191528 | 71 | 317 | 3.5 | 8.7 | 0.00 | 0.00 | 0.00 | 43 | 1014.9 |
| 20260905190032 | 71 | 360 | 2.6 | 8.7 | 0.00 | 0.00 | 0.00 | 47 | 1015.2 |
| 20260905184523 | 70 | 346 | 1.7 | 5.2 | 0.00 | 0.00 | 0.00 | 48 | 1015.3 |
| 20260905183024 | 70 | 336 | 3.5 | 8.7 | 0.00 | 0.00 | 0.00 | 47 | 1015.5 |
| 20260905181531 | 70 | 342 | 1.7 | 8.7 | 0.00 | 0.00 | 0.00 | 47 | 1015.6 |
| 20260905180019 | 69 | 5 | 3.5 | 8.7 | 0.00 | 0.00 | 0.00 | 48 | 1015.6 |
| 20260905174516 | 68 | 344 | 2.6 | 7.8 | 0.00 | 0.00 | 0.00 | 51 | 1015.7 |
| 20260905173018 | 67 | 322 | 4.3 | 8.7 | 0.00 | 0.00 | 0.00 | 51 | 1015.7 |
| 20260905171523 | 67 | 315 | 2.6 | 7.8 | 0.00 | 0.00 | 0.00 | 57 | 1015.6 |
| 20260905170010 | 66 | 355 | 3.5 | 7.8 | 0.00 | 0.00 | 0.00 | 59 | 1015.7 |
| 20260905164508 | 65 | 9 | 3.5 | 8.7 | 0.00 | 0.00 | 0.00 | 60 | 1015.4 |
| 20260905163006 | 65 | 5 | 4.3 | 8.7 | 0.00 | 0.00 | 0.00 | 62 | 1015.5 |
| 20260905161503 | 64 | 336 | 3.5 | 7.8 | 0.00 | 0.00 | 0.00 | 62 | 1015.7 |
| 20260905160007 | 63 | 336 | 4.3 | 10.4 | 0.00 | 0.00 | 0.00 | 62 | 1015.5 |
| 20260905154603 | 63 | 327 | 4.3 | 11.3 | 0.00 | 0.00 | 0.00 | 65 | 1015.5 |
| 20260905153055 | 60 | 336 | 3.5 | 7.0 | 0.00 | 0.00 | 0.00 | 72 | 1015.7 |
| 20260905151555 | 60 | 281 | 4.3 | 8.7 | 0.00 | 0.00 | 0.00 | 72 | 1015.4 |
| 20260905150057 | 59 | 302 | 2.6 | 7.8 | 0.00 | 0.00 | 0.00 | 73 | 1015.6 |
| 20260905144554 | 60 | 318 | 2.6 | 7.0 | 0.00 | 0.00 | 0.00 | 72 | 1015.5 |
| 20260905143053 | 58 | 309 | 2.6 | 6.1 | 0.00 | 0.00 | 0.00 | 74 | 1015.3 |
| 20260905141544 | 55 | 293 | 1.7 | 4.3 | 0.00 | 0.00 | 0.00 | 71 | 1015.4 |
| 20260905140045 | 54 | 292 | 1.7 | 3.5 | 0.00 | 0.00 | 0.00 | 72 | 1015.4 |
| 20260905134544 | 54 | 285 | 1.7 | 5.2 | 0.00 | 0.00 | 0.00 | 73 | 1015.6 |
| 20260905133040 | 53 | 253 | 1.7 | 5.2 | 0.00 | 0.00 | 0.00 | 73 | 1016.1 |
| 20260905131548 | 53 | 277 | 0.9 | 4.3 | 0.00 | 0.00 | 0.00 | 73 | 1014.3 |
| 20260905130038 | 53 | 333 | 1.7 | 4.3 | 0.00 | 0.00 | 0.00 | 73 | 1013.7 |
| 20260905124541 | 53 | 315 | 1.7 | 3.5 | 0.00 | 0.00 | 0.00 | 74 | 1013.7 |
| 20260905123036 | 54 | 275 | 0.0 | 3.5 | 0.00 | 0.00 | 0.00 | 74 | 1014.6 |
| 20260905121533 | 53 | 269 | 1.7 | 5.2 | 0.00 | 0.00 | 0.00 | 74 | 1015.2 |
| 20260905120030 | 53 | 249 | 2.6 | 7.0 | 0.00 | 0.00 | 0.00 | 74 | 1014.7 |
| 20260905114537 | 52 | 292 | 1.7 | 4.3 | 0.00 | 0.00 | 0.00 | 74 | 1013.6 |
| 20260905113033 | 51 | 292 | 0.9 | 4.3 | 0.00 | 0.00 | 0.00 | 75 | 1013.9 |
| 20260905111525 | 51 | 277 | 2.6 | 6.1 | 0.00 | 0.00 | 0.00 | 74 | 1013.7 |
| 20260905110022 | 51 | 273 | 0.9 | 4.3 | 0.00 | 0.00 | 0.00 | 74 | 1013.5 |
| 20260905104522 | 49 | 315 | 1.7 | 3.5 | 0.00 | 0.00 | 0.00 | 75 | 1013.0 |
| 20260905103024 | 49 | 314 | 1.7 | 4.3 | 0.00 | 0.00 | 0.00 | 75 | 1012.9 |
| 20260905101525 | 48 | 311 | 0.9 | 3.5 | 0.00 | 0.00 | 0.00 | 75 | 1012.8 |
| 20260905100021 | 48 | 312 | 1.7 | 2.6 | 0.00 | 0.00 | 0.00 | 74 | 1012.7 |
| 20260905094513 | 49 | 301 | 1.7 | 3.5 | 0.00 | 0.00 | 0.00 | 74 | 1012.7 |
| 20260905093012 | 49 | 261 | 0.9 | 2.6 | 0.00 | 0.00 | 0.00 | 72 | 1012.7 |
| 20260905091510 | 51 | 298 | 0.9 | 2.6 | 0.00 | 0.00 | 0.00 | 71 | 1012.7 |
| 20260905090013 | 51 | 326 | 0.0 | 1.7 | 0.00 | 0.00 | 0.00 | 72 | 1012.5 |
| 20260905084507 | 49 | 313 | 1.7 | 4.3 | 0.00 | 0.00 | 0.00 | 74 | 1012.2 |
| 20260905083004 | 49 | 297 | 0.9 | 1.7 | 0.00 | 0.00 | 0.00 | 70 | 1012.3 |
| 20260905081500 | 51 | 292 | 0.0 | 3.5 | 0.00 | 0.00 | 0.00 | 69 | 1012.5 |
| 20260905080104 | 51 | 297 | 0.9 | 5.2 | 0.00 | 0.00 | 0.00 | 70 | 1012.9 |
| 20260905074559 | 51 | 295 | 0.9 | 2.6 | 0.00 | 0.00 | 0.00 | 70 | 1012.8 |
| 20260905073057 | 51 | 288 | 1.7 | 3.5 | 0.00 | 0.00 | 0.00 | 68 | 1012.6 |
| 20260905071557 | 52 | 265 | 0.9 | 2.6 | 0.00 | 0.00 | 0.00 | 68 | 1012.7 |
| 20260905070058 | 51 | 283 | 1.7 | 3.5 | 0.00 | 0.00 | 0.00 | 69 | 1012.2 |
| 20260905064552 | 51 | 298 | 1.7 | 2.6 | 0.00 | 0.00 | 0.00 | 68 | 1012.3 |
| 20260905063100 | 52 | 284 | 1.7 | 3.5 | 0.00 | 0.00 | 0.00 | 67 | 1012.4 |
| 20260905061605 | 52 | 281 | 0.9 | 5.2 | 0.00 | 0.00 | 0.00 | 64 | 1012.3 |
| 20260905060044 | 52 | 277 | 0.9 | 1.7 | 0.00 | 0.00 | 0.00 | 64 | 1011.9 |
| 20260905054543 | 51 | 313 | 0.9 | 3.5 | 0.00 | 0.00 | 0.00 | 63 | 1011.3 |
| 20260905053047 | 51 | 291 | 0.9 | 3.5 | 0.00 | 0.00 | 0.00 | 61 | 1011.5 |
| 20260905051539 | 53 | 281 | 0.9 | 3.5 | 0.00 | 0.00 | 0.00 | 59 | 1011.8 |
| 20260905050039 | 53 | 292 | 0.9 | 2.6 | 0.00 | 0.00 | 0.00 | 57 | 1011.6 |
| 20260905044540 | 54 | 316 | 0.0 | 2.6 | 0.00 | 0.00 | 0.00 | 55 | 1011.6 |
| 20260905043038 | 56 | 311 | 0.0 | 1.7 | 0.00 | 0.00 | 0.00 | 53 | 1011.9 |
| 20260905041537 | 58 | 71 | 0.0 | 0.9 | 0.00 | 0.00 | 0.00 | 50 | 1011.9 |
| 20260905040034 | 59 | 71 | 0.0 | 1.7 | 0.00 | 0.00 | 0.00 | 49 | 1011.1 |
| 20260905034533 | 59 | 71 | 1.7 | 2.6 | 0.00 | 0.00 | 0.00 | 48 | 1011.1 |
| 20260905033035 | 61 | 319 | 0.0 | 0.9 | 0.00 | 0.00 | 0.00 | 46 | 1011.0 |
| 20260905031532 | 63 | 319 | 0.9 | 3.5 | 0.00 | 0.00 | 0.00 | 43 | 1010.6 |
| 20260905030036 | 63 | 31 | 0.0 | 2.6 | 0.00 | 0.00 | 0.00 | 44 | 1010.5 |
| 20260905024532 | 64 | 355 | 0.9 | 1.7 | 0.00 | 0.00 | 0.00 | 42 | 1010.1 |
| 20260905023027 | 65 | 5 | 0.0 | 1.7 | 0.00 | 0.00 | 0.00 | 41 | 1010.2 |
| 20260905021524 | 66 | 5 | 0.9 | 5.2 | 0.00 | 0.00 | 0.00 | 39 | 1009.6 |
| 20260905020028 | 67 | 346 | 3.5 | 9.6 | 0.00 | 0.00 | 0.00 | 39 | 1008.9 |
| 20260905014517 | 68 | 346 | 7.0 | 11.3 | 0.00 | 0.00 | 0.00 | 37 | 1008.5 |
| 20260905013014 | 69 | 360 | 7.8 | 14.8 | 0.00 | 0.00 | 0.00 | 36 | 1007.8 |
| 20260905011514 | 70 | 321 | 5.2 | 14.8 | 0.00 | 0.00 | 0.00 | 35 | 1007.8 |
| 20260905010013 | 70 | 331 | 7.8 | 16.5 | 0.00 | 0.00 | 0.00 | 34 | 1007.9 |
| 20260905004513 | 71 | 360 | 7.0 | 13.9 | 0.00 | 0.00 | 0.00 | 34 | 1007.8 |
| 20260905003012 | 71 | 310 | 7.0 | 14.8 | 0.00 | 0.00 | 0.00 | 33 | 1008.0 |
| 20260905001510 | 72 | 344 | 7.8 | 18.2 | 0.00 | 0.00 | 0.00 | 33 | 1007.4 |
| 20260905000010 | 73 | 312 | 6.1 | 13.0 | 0.00 | 0.00 | 0.00 | 32 | 1007.3 |
| 20260904234509 | 74 | 320 | 7.8 | 15.6 | 0.00 | 0.00 | 0.00 | 31 | 1007.5 |
| 20260904233008 | 74 | 315 | 4.3 | 11.3 | 0.00 | 0.00 | 0.00 | 32 | 1007.4 |
| 20260904231507 | 75 | 11 | 5.2 | 13.0 | 0.00 | 0.00 | 0.00 | 32 | 1007.4 |
| 20260904230006 | 75 | 300 | 4.3 | 13.9 | 0.00 | 0.00 | 0.00 | 32 | 1007.5 |
| 20260904224505 | 75 | 320 | 5.2 | 11.3 | 0.00 | 0.00 | 0.00 | 32 | 1007.4 |
| 20260904223004 | 75 | 346 | 5.2 | 10.4 | 0.00 | 0.00 | 0.00 | 32 | 1007.2 |
| 20260904221613 | 75 | 343 | 5.2 | 13.0 | 0.00 | 0.00 | 0.00 | 33 | 1007.1 |
| 20260904214608 | 75 | 264 | 3.5 | 13.9 | 0.00 | 0.00 | 0.00 | 33 | 1006.5 |
| 20260904213056 | 76 | 351 | 5.2 | 12.2 | 0.00 | 0.00 | 0.00 | 33 | 1006.2 |